STARLINK-31527, 59018

Orbit data source: Space-Track

STARLINK-31527, 59018 is a payload satellite owned by SpaceX/Seattle (US) in LEO that was launched on Fri, 23 Feb 2024 UTC via an FALCON 9 launch vehicle from the Air Force Western Test Range (AFWTR). Payload-class satellites include a variety of spacecraft equipped with specific instruments for various scientific and technological missions. These include communications satellites like Starlink; space stations such as the ISS; scientific satellites like the Hubble; Earth observation satellites from companies like Planet Labs, Umbra, and HawkEye 360; GPS; miniature CubeSats for education and research; and military/defense satellites.

Loading next visibility...
Identifier
59018, 2024-036W
Orbit
LEO
Country
Flag of USUS
Related business
Manufacturer
SpaceX/Seattle
Mission
Operational Commercial Communications
Bus & Motor
STARLINK V2M, Unknown motor
Mass
730 kg wet, ~700 kg dry
Launch date (UTC)
2024-02-23 (2 years ago)
Launch vehicle
FALCON 9
Launch site
Air Force Western Test Range (AFWTR)
Object type
Payload
Rocket body
Debris
Shape & HBR
Box + 2 Pan, 17.7 m
Radar Cross Section
33.884 m², Large (>1 m²)

Expand to show TLE details & history
Last TLE update: 2 days ago

TLE from 2 days ago
0 STARLINK-31527
1 59018U 24036W   26171.38301622 -.00000236  00000-0  41566-5 0  9999
2 59018  53.1630 321.3039 0001253  83.6342 276.4801 15.30196496131042
Epoch: 2026-06-20T09:11Z
TLE epoch observation values (Epoch: 2026-06-20T09:11:32.601Z)
Latitude
-0.00006°
Longitude
-85.18041°
Altitude
476.029 km
Speed
7.629 km/s
True Right ascension
21h 25m 12s
True Declination
0° 00' 00"
Sunlit
Object was in full shadow at epoch
Visualization orbit readout
Latitude
Unknown
Longitude
Unknown
Altitude
Unknown
Speed
Unknown
Apparent Right ascension
Unknown
Apparent Declination
Unknown
Sunlit
N/A
Visualization observer readout
Local Sidereal Time
21:28:13
Azimuth
Unknown
Elevation
Unknown
Doppler factor
Unknown
Orbital elements
Apogee altitude
476.34 km
Perigee altitude
474.623 km
Semi-major axis
6,853.618 km
Eccentricity
0.00013
Inclination
53.163°
RAAN
321.3039°
Arg. of periapsis
83.6342°
True anomaly
276.46583°
Mean anomaly
276.4801°
Eccentric anomaly
276.47297°
Mean motion
3.82528 °/min
Orbital period
94.11 mins
BSTAR
0.0000041566
Loading maneuver chart data...
Computing Atmospheric mass density...
Loading historical data...
Loading historical data...
Loading historical data...
Loading historical data...
Loading historical data...
Loading historical data...
Loading historical data...

Documentation

Showing up to 5 results
|